www.pogodaiklimat.ru

Погода и климат >> Архив погоды >> Австралия >> Port Keats Aero


ПОГОДА в Port Keats Aero

  • Прогноз погоды в Port Keats Aero
  • Монитор погоды в Port Keats Aero
  • Климат города

АРХИВ ПОГОДЫ в Port Keats Aero

Время (UTC), дата Ветер
(напр.,м/с)
 
Видим.   Явления Облачность Т
(С)
Тd
(С)
f
(%)
Тe
(С)
Тes
(С)
Комфортность P
(гПа)
Po
(гПа)
Тmin
(С)
Tmax
(С)
R
(мм)
R24
(мм)
S
(см)
14 17.01 ЮЗ 1 н/о н/о +25.0 +22.5 86 +33 +33 очень
душно
1006.9 1003.6
15 17.01 В 2 н/о н/о +24.9 +22.4 86 +33 +33 очень
душно
1006.3 1003.0
17 17.01 штиль 0 н/о н/о +25.1 +22.4 85 +33 +33 очень
душно
1004.4 1001.1
18 17.01 В 2 н/о н/о +24.9 +22.2 85 +32 +32 очень
душно
1004.1 1000.8
20 17.01 В 3 н/о н/о +25.2 +22.1 83 +33 +33 очень
душно
1005.1 1001.8
21 17.01 В 2 н/о н/о +25.0 +22.3 85 +33 +33 очень
душно
1005.4 1002.1
23 17.01 штиль 0 н/о н/о +27.0 +23.3 80 +36 +36 очень
душно
1006.6 1003.3
00 18.01 В 3 н/о н/о +28.6 +23.3 73 +39 +39 очень
душно
1007.2 1003.9
02 18.01 ЮВ 3 н/о н/о +30.7 +24.1 68 +43 +43 опасность
перегрева
1006.2 1002.9
03 18.01 В 2 н/о н/о +30.5 +22.9 64 +40 +40 очень
душно
1005.6 1002.3
05 18.01 Ю 1 н/о н/о +32.5 +22.9 57 +43 +43 опасность
перегрева
1004.3 1001.0
06 18.01 СЗ 3 н/о н/о +30.5 +24.2 69 +42 +42 опасность
перегрева
1003.4 1000.2
08 18.01 СЗ 4 н/о н/о +23.8 +22.1 90 +31 +31 очень
душно
1004.2 1000.9
09 18.01 З 2 н/о н/о +24.5 +22.0 86 +32 +32 очень
душно
1003.6 1000.4
11 18.01 СВ 1 н/о н/о +24.7 +22.4 87 +32 +32 очень
душно
1005.8 1002.5
12 18.01 штиль 0 н/о н/о +24.4 +22.8 91 +32 +32 очень
душно
1006.4 1003.1
14 18.01 СВ 3 н/о н/о +25.0 +22.7 87 +33 +33 очень
душно
1006.9 1003.6
15 18.01 СВ 2 н/о н/о +24.7 +22.4 87 +32 +32 очень
душно
1006.5 1003.2
17 18.01 В 2 н/о н/о +24.5 +22.2 87 +32 +32 очень
душно
1005.8 1002.5
18 18.01 В 2 н/о н/о +24.3 +22.4 89 +32 +32 очень
душно
1005.6 1002.3
20 18.01 Ю 1 н/о н/о +24.3 +22.6 90 +32 +32 очень
душно
1005.0 1001.7
21 18.01 ЮВ 2 н/о н/о +24.6 +22.7 89 +32 +32 очень
душно
1005.4 1002.1
23 18.01 В 2 н/о н/о +26.7 +22.5 78 +35 +35 очень
душно
1006.7 1003.4
00 19.01 В 1 н/о н/о +27.5 +22.7 75 +36 +36 очень
душно
1007.0 1003.7
02 19.01 ЮВ 2 н/о н/о +30.9 +23.3 64 +41 +41 опасность
перегрева
1006.0 1002.7
03 19.01 ЮВ 3 н/о н/о +31.3 +21.8 57 +40 +40 очень
душно
1005.3 1002.0
05 19.01 СВ 4 н/о н/о +32.4 +22.2 55 +41 +41 опасность
перегрева
1003.4 1000.2
06 19.01 СЗ 4 н/о н/о +31.3 +23.9 65 +43 +43 опасность
перегрева
1002.5 999.3
08 19.01 З 3 н/о н/о +29.7 +23.4 69 +40 +40 очень
душно
1002.6 999.4
09 19.01 З 2 н/о н/о +29.4 +23.1 69 +39 +39 очень
душно
1003.2 1000.0
11 19.01 Ю 1 н/о н/о +26.5 +22.6 79 +35 +35 очень
душно
1004.3 1001.0
12 19.01 штиль 0 н/о н/о +26.0 +22.3 80 +34 +34 очень
душно
1005.2 1001.9
14 19.01 штиль 0 н/о н/о +25.9 +23.0 84 +35 +35 очень
душно
1006.2 1002.9
15 19.01 ЮВ 2 н/о н/о +25.7 +23.2 86 +34 +34 очень
душно
1005.7 1002.4
17 19.01 СВ 3 н/о н/о +25.6 +23.8 90 +35 +35 очень
душно
1004.0 1000.7
18 19.01 В 2 н/о н/о +25.7 +24.1 91 +36 +36 очень
душно
1003.3 1000.1
20 19.01 ЮВ 2 н/о н/о +25.7 +24.1 91 +36 +36 очень
душно
1003.4 1000.2
21 19.01 штиль 0 н/о н/о +25.5 +23.9 91 +35 +35 очень
душно
1004.5 1001.2
23 19.01 СВ 2 н/о н/о +27.9 +23.9 79 +39 +39 очень
душно
1005.7 1002.4
00 20.01 С 3 н/о н/о +28.4 +24.4 79 +40 +40 очень
душно
1005.6 1002.3
02 20.01 СЗ 4 н/о н/о +28.2 +24.4 80 +40 +40 очень
душно
1004.9 1001.6
03 20.01 СЗ 3 н/о н/о +29.1 +23.5 72 +40 +40 очень
душно
1004.2 1000.9
05 20.01 З 3 н/о н/о +29.6 +23.3 69 +40 +40 очень
душно
1002.3 999.1
06 20.01 З 3 н/о н/о +29.9 +23.3 68 +40 +40 очень
душно
1001.7 998.5
08 20.01 СЗ 3 н/о н/о +28.7 +24.0 76 +40 +40 очень
душно
1001.2 998.0
09 20.01 С 3 н/о н/о +28.6 +24.2 77 +40 +40 очень
душно
1002.0 998.8
11 20.01 С 2 н/о н/о +27.9 +23.9 79 +39 +39 очень
душно
1002.8 999.6
12 20.01 З 2 н/о н/о +27.2 +24.3 84 +38 +38 очень
душно
1003.9 1000.6
14 20.01 Ю 4 н/о н/о +24.3 +22.4 89 +32 +32 очень
душно
1005.5 1002.2
15 20.01 З 3 н/о н/о +24.5 +22.9 91 +32 +32 очень
душно
1003.7 1000.5
17 20.01 штиль 0 н/о н/о +24.4 +22.8 91 +32 +32 очень
душно
1002.7 999.5
18 20.01 штиль 0 н/о н/о +24.6 +23.0 91 +33 +33 очень
душно
1002.1 998.9
20 20.01 штиль 0 н/о н/о +24.5 +23.1 92 +33 +33 очень
душно
1001.3 998.1
21 20.01 штиль 0 н/о н/о +24.5 +23.1 92 +33 +33 очень
душно
1001.9 998.7
23 20.01 штиль 0 н/о н/о +26.4 +24.1 87 +37 +37 очень
душно
1002.8 999.6
00 21.01 ЮЗ 2 н/о н/о +29.2 +24.7 77 +42 +42 опасность
перегрева
1002.9 999.7
02 21.01 З 4 н/о н/о +31.3 +25.4 71 +46 +46 опасность
перегрева
1002.3 999.1
03 21.01 З 5 н/о н/о +30.7 +23.1 64 +41 +41 опасность
перегрева
1001.4 998.2
05 21.01 СЗ 3 н/о н/о +29.6 +24.5 74 +42 +42 опасность
перегрева
1000.8 997.6
06 21.01 СЗ 5 н/о н/о +28.2 +24.4 80 +40 +40 очень
душно
1000.1 996.9
08 21.01 С 4 н/о н/о +28.2 +24.2 79 +39 +39 очень
душно
999.8 996.6
09 21.01 С 4 н/о н/о +28.0 +24.6 82 +40 +40 очень
душно
1000.5 997.3
11 21.01 ЮЗ 4 н/о н/о +26.3 +24.7 91 +37 +37 очень
душно
1002.5 999.3
12 21.01 СЗ 4 н/о н/о +26.3 +24.7 91 +37 +37 очень
душно
1002.8 999.6
14 21.01 Ю 2 н/о н/о +25.2 +23.4 90 +34 +34 очень
душно
1002.1 998.9
15 21.01 СЗ 2 н/о н/о +24.9 +22.0 84 +32 +32 очень
душно
1001.9 998.7
17 21.01 штиль 0 н/о н/о +24.5 +22.6 89 +32 +32 очень
душно
1000.7 997.5
18 21.01 штиль 0 н/о н/о +24.9 +23.0 89 +33 +33 очень
душно
1000.8 997.6
20 21.01 ЮВ 2 н/о н/о +25.2 +23.3 89 +34 +34 очень
душно
1000.8 997.6
21 21.01 ЮВ 2 н/о н/о +25.4 +23.6 90 +35 +35 очень
душно
1001.2 998.0
23 21.01 В 2 н/о н/о +26.2 +23.7 86 +36 +36 очень
душно
1002.0 998.8
00 22.01 СЗ 2 н/о н/о +29.9 +25.0 75 +43 +43 опасность
перегрева
1001.6 998.4
02 22.01 З 4 н/о н/о +30.7 +23.6 66 +42 +42 опасность
перегрева
1001.3 998.1
03 22.01 ЮЗ 3 н/о н/о +30.6 +24.5 70 +43 +43 опасность
перегрева
1000.7 997.5
05 22.01 ЮЗ 4 н/о н/о +32.3 +23.8 61 +44 +44 опасность
перегрева
998.9 995.7
06 22.01 ЮЗ 4 н/о н/о +32.8 +23.4 58 +44 +44 опасность
перегрева
998.4 995.2
08 22.01 СЗ 3 н/о н/о +31.1 +24.7 69 +44 +44 опасность
перегрева
998.3 995.1
09 22.01 СЗ 3 н/о н/о +30.7 +24.8 71 +44 +44 опасность
перегрева
998.3 995.1
11 22.01 СЗ 3 н/о н/о +30.0 +26.2 80 +45 +45 опасность
перегрева
999.9 996.7
12 22.01 СЗ 4 н/о н/о +30.1 +26.3 80 +46 +46 опасность
перегрева
1000.5 997.3
14 22.01 З 4 н/о н/о +29.8 +26.4 82 +46 +46 опасность
перегрева
999.8 996.6
15 22.01 СЗ 5 н/о н/о +29.8 +25.8 79 +44 +44 опасность
перегрева
999.7 996.5
17 22.01 СВ 3 н/о н/о +22.4 +21.0 92 +29 +29 очень
душно
1001.3 998.1
18 22.01 В 1 н/о н/о +22.9 +21.7 93 +31 +31 очень
душно
1000.1 996.9
20 22.01 В 2 н/о н/о +23.4 +22.2 93 +32 +32 очень
душно
1000.8 997.6
21 22.01 штиль 0 н/о н/о +23.6 +22.4 93 +31 +31 очень
душно
1001.4 998.2
23 22.01 штиль 0 н/о н/о +24.8 +23.4 92 +33 +33 очень
душно
1001.6 998.4
00 23.01 Ю 2 н/о н/о +26.4 +24.1 87 +37 +37 очень
душно
1001.9 998.7
02 23.01 Ю 2 н/о н/о +26.6 +23.9 85 +37 +37 очень
душно
1001.4 998.2
03 23.01 СВ 1 н/о н/о +29.3 +24.4 75 +41 +41 опасность
перегрева
1000.8 997.6
05 23.01 З 3 н/о н/о +30.5 +23.4 66 +41 +41 опасность
перегрева
999.2 996.0
06 23.01 ЮЗ 4 н/о н/о +31.0 +23.1 63 +41 +41 опасность
перегрева
998.9 995.7
08 23.01 З 4 н/о н/о +30.5 +23.4 66 +41 +41 опасность
перегрева
999.2 996.0
09 23.01 З 3 н/о н/о +30.5 +23.9 68 +42 +42 опасность
перегрева
999.8 996.6
11 23.01 штиль 0 н/о н/о +27.9 +23.9 79 +39 +39 очень
душно
1001.8 998.6
12 23.01 С 2 н/о н/о +28.5 +24.3 78 +40 +40 очень
душно
1001.5 998.3
14 23.01 Ю 6 н/о н/о +25.1 +21.4 80 +32 +32 очень
душно
1003.4 1000.2
15 23.01 З 2 н/о н/о +23.0 +21.6 92 +31 +31 очень
душно
1002.3 999.1
17 23.01 З 2 н/о н/о +23.2 +22.0 93 +32 +32 очень
душно
1000.4 997.2
18 23.01 штиль 0 н/о н/о +23.5 +22.3 93 +31 +31 очень
душно
999.5 996.3
20 23.01 штиль 0 н/о н/о +24.6 +23.4 93 +33 +33 очень
душно
999.4 996.2
21 23.01 штиль 0 н/о н/о +25.0 +23.8 93 +34 +34 очень
душно
999.4 996.2
23 23.01 ЮЗ 2 н/о н/о +28.0 +25.0 84 +40 +40 очень
душно
1000.8 997.6
00 24.01 ЮЗ 3 н/о н/о +29.5 +24.1 73 +41 +41 опасность
перегрева
1000.6 997.4
02 24.01 ЮЗ 3 н/о н/о +29.6 +23.3 69 +40 +40 очень
душно
1000.1 996.9
03 24.01 ЮЗ 3 н/о н/о +29.0 +23.4 72 +39 +39 очень
душно
999.4 996.2
05 24.01 З 3 н/о н/о +29.1 +24.0 74 +40 +40 очень
душно
998.3 995.1
06 24.01 З 2 н/о н/о +29.6 +23.8 71 +41 +41 опасность
перегрева
997.3 994.1
08 24.01 СЗ 3 н/о н/о +30.1 +24.3 71 +42 +42 опасность
перегрева
997.2 994.0
09 24.01 СЗ 3 н/о н/о +30.4 +24.8 72 +43 +43 опасность
перегрева
997.5 994.3
11 24.01 СЗ 2 н/о н/о +29.0 +25.2 80 +42 +42 опасность
перегрева
998.6 995.4

 

Местоположение метеостанции Port Keats Aero (Северная территория, Австралия): широта -14.25 долгота 129.53 высота над уровнем моря 29 м.

В архиве по умолчанию представлена погода в Port Keats Aero за последнюю неделю. Архивные данные за месяц целиком и за предыдущие месяцы, начиная с января 2011 года, Вы можете получить, выбрав интересующий диапазон дат из раскрывающегося списка и нажав кнопку "Ввод!".

Внимание! Время в таблицах - всемирное. Для получения местного времени необходимо прибавить поправку, которая в Port Keats Aero равна 9.5 ч.

Смотрите также архив погоды в соседних городах и на ближайших метеорологических станциях:

Погода в Manbulloo Csiro (Северная территория, Австралия) (157 км)
Погода в Cape Don Lighthouse (Северная территория, Австралия) (184 км)
Погода в Kununurra (Западная Австралия, Австралия) (192 км)
Погода в Dum In Mirrie (Северная территория, Австралия) (202 км)
Погода в Wyndham Aero (Западная Австралия, Австралия) (203 км)
Погода в Batchelor Fld (Северная территория, Австралия) (209 км)
Погода в Darwin (Северная территория, Австралия) (251 км)
Погода в Middle Point Aws (Северная территория, Австралия) (265 км)
Погода в Bathurst Island (Северная территория, Австралия) (280 км)
Погода в Victoria River Downs (Северная территория, Австралия) (288 км)

Пояснения к столбцам:

Ветер - указаны скорость ветра в м/с - средняя за 10 мин, порывы в срок и между сроками (в фигурных скобках) и направление, откуда дует ветер: С - северный, СВ - северо-восточный, В - восточный, ЮВ - юго-восточный, Ю - южный, ЮЗ - юго-западный, З - западный, СЗ - северо-западный.
Видимость - горизонтальная дальность видимости в метрах или километрах. При видимости от 1 до 10 км при отсутствии осадков обычно наблюдается дымка, при ухудшении видимости до 1 км и менее - туман. В сухую погоду видимость может ухудшаться дымом, пылью или мглою.
Явления - указаны атмосферные явления, наблюдавшиеся в срок или в последний час перед сроком; фигурными скобками обозначены явления, наблюдавшиеся между сроками (за 1-3 часа до срока); квадратными скобками обозначены град или гололедные отложения с указанием их диаметра в мм.
Облачность - указаны через наклонную черту общая и нижняя облачность в баллах и высота нижней границы облаков в метрах; квадратными скобками обозначены формы облаков: Ci - перистые, Cs - перисто-слоистые, Cc - перисто-кучевые, Ac - высококучевые, As - высокослоистые, Sc - слоисто-кучевые, Ns - слоисто-дождевые, Cu - кучевые, Cb - кучево-дождевые. Подробнее классификацию облаков см. в Атласе облаков (PDF).
T - Температура воздуха - температура, измеренная на высоте 2 м над землей.
Td - Температура точки росы - температура, при понижении до которой содержащийся в воздухе водяной пар достигнет насыщения.
f - Относительная влажность воздуха - влажноcть воздуха, измеренная на высоте 2 м над землей.
Te - Эффективная температура - температура, которую ощущает одетый по сезону человек в тени. Характеристика душности погоды. При расчете учитывается влияние влажности воздуха и скорости ветра на теплоощущения человека.
Tes - Эффективная температура на солнце - температура, которую ощущает человек, с поправкой на солнечный нагрев. Характеристика знойности погоды. Зависит от высоты солнца над горизонтом, облачности и скорости ветра. Ночью, в пасмурную погоду, а также при ветре 12 м/с и более поправка равна нулю.
P - Атмосферное давление - приведенное к уровню моря атмосферное давление.
Po - Атмосферное давление - измеренное на уровне метеостанции атмосферное давление.
Tmin - Минимальная температура - минимум температуры воздуха на высоте 2 м над землей.
Tmax - Максимальная температура - максимум температуры воздуха на высоте 2 м над землей.
R - Количество осадков - Количество выпавших осадков за период времени, мм. При наведении курсора мыши на число - период времени, за который выпало указанное количество осадков.
R24 - Количество осадков - Количество выпавших осадков за 24 часа, мм.
S - Снежный покров - Высота снежного покрова, см. При наведении курсора мыши на число - состояние снежного покрова и степень покрытия местности в баллах.